    Orbital elements:
    2020 LE                                                  Earth MOID = 0.0556 AU
    Epoch 2020 May 31.0 TT = JDT 2459000.5                  Veres
    M 136.20657              (2000.0)            P               Q
    n   1.39924306     Peri.  196.00904     -0.00774440     -0.93496066
    a   0.7916635      Node   255.49835     +0.95294806     +0.10058237
    e   0.3960530      Incl.   21.48996     +0.30303469     -0.34019369
    P   0.70           H   21.9           G   0.15           U   8
    Residuals in seconds of arc
    200607 T08  0.0   0.1-    200608 I52  0.3-  0.1-    200608 E94  0.1+  0.1-
    200607 T08  0.1-  0.0     200608 I52  0.3-  0.1-    200608 N88  0.5-  0.4+
    200607 T08  0.0   0.3-    200608 W88  0.2-  0.3-    200608 N88  0.8-  0.4-
    200607 T08  0.0   0.1+    200608 W88  0.3-  0.5+    200608 N88  0.0   0.5+
    200607 204  0.3-  0.5+    200608 U71  0.2+  0.6-    200608 K63  0.3-  0.3+
    200607 204  0.1-  0.3+    200608 U71  0.8+  1.3-    200608 K63  0.1-  0.3+
    200607 204  0.1+  0.5+    200608 U71  0.9+  0.6+    200608 K63  0.6-  0.1-
    200607 X31  0.2-  0.4-    200608 U71 (0.2-  1.8+)   200609 I52  0.4-  0.0
    200607 X31  0.3+  0.7-    200608 U71  1.2+  0.4-    200609 I52  0.5-  0.2-
    200607 X31  0.3-  0.7+    200608 E89  0.4+  0.1+    200609 I52  0.4-  0.1+
    200608 W34  0.2+  0.6+    200608 E89  0.1+  0.4-    200609 I52  0.2-  0.2-
    200608 W34  0.1+  0.5+    200608 E94  0.1-  0.4+    200609 718  0.7+  0.1+
    200608 H21  0.0   0.1-    200608 E89  0.0   0.1+    200609 718  0.6+  0.1+
    200608 H21  0.0   0.0     200608 Q38  0.5-  0.1-    200609 718  0.5+  0.4-
    200608 H21  0.2-  0.0     200608 Q38  0.4+  0.9-    200609 718  0.5+  1.0-
    200608 H21  0.1-  0.0     200608 Q38  0.1+  0.8+    200609 718  0.1+  0.3-
    200608 H21  0.1-  0.1+    200608 E89  0.4+  0.2-    200609 703  0.3-  0.0
    200608 H21  0.1-  0.0     200608 Q38  0.2+  0.7-    200609 703  0.6-  0.6+
    200608 W88  0.0   0.0     200608 E89  0.5+  0.0     200609 703  0.3+  1.1+
    200608 I52  0.3-  0.0     200608 E94  0.4-  0.0     200609 703  0.5+  0.4-
    200608 I52  0.3-  0.2-    200608 E94  0.3-  0.5+
    
    Ephemeris:
    2020 LE                  a,e,i = 0.79, 0.40, 21                  q = 0.4781
    Date    TT    R. A. (2000) Decl.     Delta      r    Elong.  Phase     V
    2020 05 10    01 01 22.0 -49 31 45   0.1708  0.9730    72.8    97.6    21.5
    ...
    2020 05 25    22 39 32.0 -65 39 13   0.08167 1.0382   105.8    69.8    19.0
    ...
    2020 06 02    16 54 01.1 -50 16 50   0.05604 1.0639   151.8    26.8    17.0
    ...
    2020 06 08    15 25 28.4 -16 23 36   0.06992 1.0791   155.7    22.8    17.4
    2020 06 09    15 18 33.6 -12 17 39   0.07455 1.0813   151.6    26.5    17.6
    2020 06 10    15 12 43.5 -08 41 34   0.07960 1.0834   147.7    30.0    17.9
    ...
    2020 06 16    14 51 32.1 +05 17 26   0.1153  1.0939   130.2    45.1    19.1
    ...
    2020 06 24    14 40 47.8 +13 28 47   0.1690  1.1026   116.6    55.5    20.3
    ...
    2020 07 09    14 39 07.0 +18 48 36   0.2707  1.1023   101.3    64.7    21.6
    
    M. P. C. Staff               (C) Copyright 2020 MPC           M.P.E.C. 2020-L37
    


    Read MPEC 2020-L36 Read MPEC 2020-L38


    MPEC number:

    Enter an MPEC number in one of the following forms:

    • 1997-B01 (the full form)
    • J97B01 (the packed version of the full form)
    • B01 (the abbreviated form)